{"data":{"norad_id":48066,"epoch":"2026-09-20T01:34:54.365664Z","epoch_age_seconds":55806,"freshness":"FRESH","line1":"1 48066U 21025AA  26263.06590701 -.00000220  00000+0 -63835-3 0  9994","line2":"2 48066  87.8919 301.3441 0001812  91.8180 268.3157 13.13470543266044","mean_motion":13.13470543,"eccentricity":0.0001812,"inclination_deg":87.8919,"raan_deg":301.3441,"arg_perigee_deg":91.818,"mean_anomaly_deg":268.3157,"bstar":-0.00063835,"rev_number":26604,"period_min":109.63321619006,"perigee_km":1208.3883810949,"apogee_km":1211.1382361667,"semimajor_km":7587.9003086308,"source":"CELESTRAK","updated_at":"2026-09-20T09:00:44.589088Z"}}